Flagstaff Pulliam Airport
KFLG : now visible

Airfield :











YOU CAN JOIN US ON...

 
LOGIN :

Register | Disclaimer

   EN    FR    IT 

 









Legend :    VFR   Marginal VFR   IFR   Intensive IFR   Very Intensive IFR
Visi :
Ceiling :
>= 8 km
>= 3000ft
5 to 8 km
1000 to 3000 ft
1500m to 5 km
500 to 1000 ft
800 to 1500m
200 to 500 ft
< 800m
< 200 ft
Symbols :   Thunderstorms  Fog  Heavy snow  Heavy precipitations  Wind > 20 kt






- Airport Elevation : 7014 ft
- IATA code : FLG


KFLG - Flagstaff Pulliam

CURRENT METAR :
  • 272057Z 18009KT 10SM SCT044 BKN060 15/11 A3018 RMK AO2 SLP146 60001 T01500106 58020

EXPIRED METARs :
  • 271957Z 20007KT 10SM FEW029 BKN040 OVC110 16/10 A3021 RMK AO2 LTG DSNT W SLP158 T01560100
  • 271857Z 18004KT 10SM BKN065 BKN085 OVC120 14/09 A3023 RMK AO2 RAB1759E09B18E34 SLP167 P0001 T01390094

TAF KFLG
Valid from the 27 at 18:00 until the 28 at 18:00 UTC


271742Z 2718/2818 VRB06KT P6SM VCSH FEW030 BKN060
TEMPO 2720/2723 5SM -SHRA BR OVC035
FM280200 VRB05KT P6SM SCT010 BKN060
FM281700 23011G18KT P6SM BKN060
KZAB FIR / North America



MET'MAP, your aeronautical weather chart ! - Copyright ORBIFLY December 2007 - Disclaimer

ORBIFLY MET'MAP TEAM :

Programming & Development : Alexandra Zaïnal
Concept & original design : Baudouin d'Aumeries
Assistance for programming : Marc-Olivier Méhu
Technical & hardware support : Manuel Goepfert

Contact : metmap@orbifly.com




SOURCES & CREDITS :

   NOAA       Earth
Advisory